User: anonymous
Location: Caltech
(34.1382°N, 118.1253°W)
Time: 16:43:16
(UTC-07:00)
Language:

GPS 2-04 Rocket1 - Orbit

View from above orbital plane
View from above orbital plane
View from above satellite
View from above satellite

Ground track
Ground track

The orbit data is extracted from the following two-line orbital elements,

1 20303U 89085B   14245.09775887  .00005887  00000-0  27970-3 0  8574
2 20303 035.6329 239.3695 0140618 226.4895 190.9478 15.10265085345521
Epoch (UTC): 02 September 2014 02:20:46
Eccentricity: 0.0140618
inclination: 35.6329°
perigee height: 438 km
apogee height: 632 km
right ascension of ascending node: 239.3695°
argument of perigee: 226.4895°
revolutions per day: 15.10265085
mean anomaly at epoch: 190.9478°
orbit number at epoch: 34552

The dashed part of the orbit path shows where the satellite is in the earth's shadow,  

DLR